Location: Lane
(33.5226°N, 79.8788°W)
Time: 06:22:11
(UTC+00:00)

Courier 1B Rocket - Pass Details

Date: 08 October 2022
Orbit: 920 x 1201 km, 28.2° (Epoch: 07 December)

Event Time Altitude Azimuth Distance (km) Brightness Sun altitude
Rises 00:18:17 0° 262° (W) 3,854 9.7 -18.0°
Reaches altitude 10° 00:21:09 10° 258° (WSW) 2,854 8.6 -18.6°
Maximum altitude 00:27:53 55° 183° (S) 1,175 5.3 -20.0°
Enters shadow 00:30:39 33° 122° (ESE) 1,572 5.6 -20.6°
Drops below altitude 10° 00:34:10 10° 107° (ESE) 2,672 - -21.3°
Sets 00:36:46 0° 102° (ESE) 3,590 - -21.8°
